Regional Weather Roundup
Issued by NWS

Home | Current Version | Previous Version | Text Only | Print | Product List | Glossary On
Versions: 1 2 3 4 5 6 7 8 9 10 11 12 13 14 15 16 17 18 19 20 21 22 23 24 25 26 27 28 29 30 31 32 33 34 35 36 37 38 39 40 41 42 43 44 45 46 47 48 49 50
000
ASCA42 TJSJ 190011
RWRPR
PUERTO RICO/U.S. VIRGIN ISLANDS HOURLY WEATHER ROUNDUP
NATIONAL WEATHER SERVICE SAN JUAN PR
800 PM AST THU DEC 18 2014

PRZ001-004-190100-
PUERTO RICO

CITY           SKY/WX    TMP DP  RH WIND       PRES   REMARKS
SAN JUAN LMM   PTCLDY    79  70  73 CALM      29.99R
AGUADILLA      MOCLDY    72  75 100 SE5       30.02R
CEIBA          PTCLDY    79  68  69 NE5       30.01R
$$

PRZ006-007-190100-
U.S. VIRGIN ISLANDS

CITY           SKY/WX    TMP DP  RH WIND       PRES   REMARKS
CHARLOTTE AMA  CLOUDY    79  68  69 E9        29.98
$$

HOURLY WEATHER ROUNDUP FOR THE NEWS MEDIA

CITY           SKY/WX    TMP DP  RH WIND       PRES   REMARKS
MIAMI          CLEAR     71  60  68 SE5       30.08S
ORLANDO        PTCLDY    60  46  59 CALM      30.11S
NEW YORK       PTCLDY    40  25  55 NW18G25   29.96F WCI  31
NEWARK         MOCLDY    39  26  59 NW13G21   29.98S WCI  31
CHICAGO        CLOUDY    28  19  69 N7        30.24R WCI  21
HARTFORD       CLOUDY    38  28  67 W10       29.86R WCI  31
BOSTON         MOCLDY    40  28  62 W12       29.85R WCI  33
DALLAS         CLOUDY    49  44  83 N7        30.14R
PHILADELPHIA   MOCLDY    37  24  59 W9        30.06R WCI  30


USA.gov is the U.S. government's official web portal to all federal, state and local government web resources and services.